Tracking 35275 objects as of 8-Sep-2026
HD Live streaming from Space Station
objects crossing your sky now

INTELSAT 1002

Track INTELSAT 1002 now!
INTELSAT 1002 is classified as:


NORAD ID: 28358
Int'l Code: 2004-022A
Launch date: June 16, 2004
Source: International Telecommunications Satellite Organization (ITSO)
Launch site: TYURATAM MISSILE AND SPACE COMPLEX (TTMTR)

Television, data, and other telecommunication services to Europe, Africa and the Middle East; 36 Ku-band, 70 C-band transponders.
Your satellite tracking list
Your tracking list is empty




NASA's NSSDC Master Catalog

Two Line Element Set (TLE):
1 28358U 04022A   26251.23103582 -.00000032  00000-0  00000-0 0  9990
2 28358   0.0503 266.6971 0000351  13.5245 149.2484  1.00271624 81387
Source of the keplerian elements: AFSPC